Total_Precipitation_Accumulation
2.70 2.80 2.75 2.85 3.07 3.06 3.18 3.44 3.59 3.59 3.60 3.71 3.82 3.87 3.83 3.75 3.45 3.12 2.90 2.93 3.01 3.17 3.59 3.57 4.08 4.09 4.27 4.23 4.23 4.53 4.66 4.44 4.60 4.79 4.48 3.64 3.09 3.06 2.98 3.05 3.27 3.20 3.31
2.85 3.05 3.07 2.97 3.03 3.08 3.19 3.48 3.66 3.77 3.75 4.03 4.32 4.32 4.26 3.91 3.69 3.39 3.27 3.13 3.25 3.29 3.41 4.03 4.24 4.34 4.51 4.37 4.34 4.52 4.54 4.15 4.48 4.95 5.06 4.27 3.81 3.27 2.55 2.80 2.96 3.18 3.68
2.30 2.87 3.17 3.23 2.97 2.89 3.03 3.25 3.50 3.70 3.83 4.08 4.32 4.27 4.40 4.16 3.94 3.75 3.61 3.29 3.19 3.18 3.45 3.87 4.21 4.33 4.14 4.32 4.35 4.32 4.42 4.32 4.27 4.50 5.05 4.59 4.08 3.53 2.84 2.74 3.03 3.34 3.71
2.03 2.49 2.81 2.75 2.68 2.67 2.71 3.01 3.31 3.48 3.66 3.92 4.00 3.96 3.94 3.89 3.82 3.72 3.36 3.20 3.05 3.02 3.15 3.40 3.74 4.00 3.95 4.11 3.83 3.96 4.18 4.40 4.27 4.33 4.38 4.25 4.02 3.84 3.39 2.96 2.87 3.13 3.33
1.78 2.15 2.40 2.40 2.31 2.32 2.57 3.00 3.27 3.37 3.39 3.46 3.50 3.69 3.58 3.67 3.71 3.55 3.37 3.30 3.22 3.03 2.88 3.11 3.55 3.76 3.74 3.62 3.54 3.78 3.86 3.90 3.94 4.15 4.12 4.17 4.13 3.79 3.71 3.46 3.24 2.91 2.58
1.54 1.91 2.24 2.39 2.35 2.40 2.70 3.03 3.22 3.29 3.24 3.17 3.18 3.35 3.43 3.62 3.64 3.45 3.38 3.14 2.98 2.83 2.76 2.84 3.28 3.43 3.41 3.43 3.43 3.46 3.50 3.59 3.64 3.75 3.81 4.04 4.05 4.00 4.02 3.62 3.30 3.04 2.30
1.65 1.89 2.15 2.27 2.38 2.50 2.56 2.75 2.98 3.10 3.00 2.88 2.89 2.98 3.17 3.30 3.18 3.06 3.05 2.88 2.61 2.47 2.58 2.58 2.79 2.88 3.00 3.08 3.29 3.36 3.30 3.36 3.45 3.48 3.43 3.54 3.58 3.76 3.89 3.76 3.33 3.04 2.43
1.93 2.06 2.18 2.28 2.30 2.37 2.42 2.42 2.53 2.62 2.55 2.54 2.64 2.73 2.76 2.71 2.60 2.76 2.64 2.53 2.32 2.24 2.35 2.43 2.44 2.41 2.45 2.59 3.07 3.15 3.16 3.22 3.19 3.01 3.31 3.26 3.07 3.30 3.48 3.78 3.84 3.30 2.82
1.60 1.90 2.04 2.06 2.08 2.00 1.92 1.93 2.01 2.02 2.01 2.02 2.14 2.17 2.18 2.15 2.20 2.31 2.23 2.13 2.10 2.00 2.04 2.08 2.23 2.21 2.14 2.23 2.48 2.64 2.81 2.97 2.91 2.93 3.09 2.95 2.81 2.84 2.96 3.34 3.68 3.75 3.35
1.32 1.41 1.63 1.77 1.82 1.80 1.77 1.78 1.75 1.81 1.85 1.83 1.83 1.77 1.81 1.81 1.86 1.87 1.76 1.80 1.83 1.84 1.86 1.93 1.98 2.02 2.04 2.11 2.32 2.36 2.60 2.76 2.80 2.79 2.82 2.83 2.71 2.79 2.75 2.91 3.21 3.50 3.65
1.03 1.12 1.32 1.59 1.73 1.69 1.62 1.66 1.69 1.73 1.79 1.81 1.79 1.70 1.66 1.74 1.75 1.71 1.67 1.71 1.72 1.69 1.71 1.74 1.76 1.73 1.81 2.02 2.14 2.10 2.33 2.47 2.56 2.46 2.45 2.53 2.73 2.83 2.64 2.70 2.84 3.17 3.59
0.88 1.00 1.16 1.43 1.54 1.45 1.42 1.45 1.49 1.52 1.56 1.65 1.61 1.56 1.62 1.70 1.67 1.60 1.64 1.76 1.76 1.71 1.76 1.87 1.89 1.75 1.79 1.99 1.91 1.78 2.01 2.30 2.37 2.46 2.62 2.58 2.77 2.85 2.70 2.76 2.86 3.16 3.50
0.83 0.90 1.01 1.21 1.38 1.36 1.40 1.43 1.46 1.44 1.51 1.58 1.57 1.55 1.50 1.56 1.59 1.62 1.63 1.64 1.65 1.72 1.77 1.87 1.91 1.89 1.92 1.91 1.81 1.79 1.83 1.97 2.12 2.31 2.53 2.62 2.92 2.93 2.95 2.88 2.89 3.10 3.28
0.87 0.89 0.97 1.14 1.29 1.39 1.54 1.60 1.61 1.54 1.55 1.52 1.45 1.42 1.36 1.40 1.48 1.53 1.51 1.53 1.61 1.70 1.68 1.69 1.79 1.89 1.95 1.91 1.88 1.92 1.93 1.95 1.99 2.03 2.00 1.99 2.22 2.44 2.80 2.80 2.80 2.93 3.18
0.86 0.89 0.99 1.10 1.20 1.33 1.52 1.56 1.59 1.58 1.63 1.63 1.55 1.46 1.49 1.55 1.52 1.46 1.54 1.58 1.58 1.60 1.67 1.64 1.67 1.75 1.75 1.71 1.84 1.88 1.88 2.02 1.97 1.87 1.76 1.67 1.76 1.83 1.94 1.88 2.22 2.51 2.70
0.80 0.87 1.02 1.27 1.22 1.29 1.41 1.55 1.65 1.70 1.73 1.76 1.69 1.66 1.69 1.64 1.58 1.53 1.60 1.61 1.58 1.57 1.60 1.61 1.69 1.71 1.56 1.81 1.93 1.90 1.87 1.85 1.81 1.78 1.71 1.65 1.57 1.42 1.41 1.45 1.64 1.92 2.17
0.77 0.82 0.91 1.09 1.29 1.42 1.49 1.59 1.64 1.66 1.73 1.75 1.78 1.90 1.95 1.87 1.76 1.65 1.64 1.62 1.66 1.71 1.71 1.73 1.77 1.65 1.73 1.90 1.86 1.88 1.83 1.80 1.68 1.64 1.67 1.46 1.34 1.40 1.26 1.41 1.47 1.41 1.42
0.86 0.94 0.98 0.98 1.00 1.17 1.43 1.64 1.75 1.70 1.76 1.91 1.88 1.94 1.96 1.85 1.82 1.78 1.71 1.77 1.84 1.78 1.75 1.81 1.87 1.90 1.83 1.85 1.65 1.69 1.61 1.64 1.62 1.60 1.60 1.59 1.51 1.46 1.53 1.50 1.43 1.29 1.19
0.94 1.06 1.02 0.99 1.01 1.11 1.30 1.57 1.66 1.69 1.76 1.81 1.85 1.86 1.93 1.90 1.90 1.90 1.94 1.92 1.92 1.78 1.68 1.65 1.76 1.83 1.85 1.79 1.53 1.45 1.30 1.40 1.48 1.51 1.54 1.51 1.43 1.54 1.57 1.53 1.48 1.41 1.31
0.96 1.04 1.08 1.18 1.20 1.27 1.34 1.44 1.54 1.67 1.73 1.73 1.79 1.93 2.07 2.09 2.00 1.98 2.07 2.05 2.02 1.89 1.77 1.65 1.69 1.73 1.72 1.68 1.48 1.39 1.28 1.40 1.48 1.59 1.57 1.50 1.38 1.46 1.49 1.41 1.47 1.47 1.45
0.91 0.97 1.15 1.43 1.57 1.62 1.69 1.74 1.73 1.80 1.79 1.79 1.89 2.02 2.15 2.19 2.24 2.35 2.39 2.27 2.16 2.08 1.95 1.79 1.79 1.82 1.81 1.76 1.54 1.49 1.46 1.59 1.67 1.67 1.66 1.60 1.49 1.36 1.43 1.45 1.44 1.46 1.53
0.86 0.87 1.13 1.42 1.66 1.86 2.00 2.03 2.02 1.94 2.00 1.98 2.10 2.22 2.34 2.28 2.28 2.44 2.47 2.46 2.42 2.30 2.14 2.08 2.02 2.01 2.02 1.82 1.62 1.54 1.56 1.65 1.72 1.73 1.69 1.69 1.56 1.32 1.30 1.32 1.37 1.38 1.33
0.77 0.84 1.07 1.35 1.60 1.78 1.97 2.12 2.12 2.16 2.20 2.23 2.34 2.38 2.48 2.61 2.70 2.70 2.55 2.56 2.56 2.44 2.30 2.24 2.16 2.15 2.22 2.10 1.84 1.68 1.61 1.62 1.52 1.53 1.55 1.53 1.49 1.32 1.19 1.22 1.25 1.17 1.05
0.84 0.91 1.17 1.36 1.56 1.75 1.98 2.13 2.08 2.05 2.21 2.41 2.52 2.51 2.57 2.64 2.85 3.01 2.75 2.65 2.56 2.45 2.38 2.35 2.30 2.32 2.37 2.30 2.02 1.76 1.66 1.64 1.56 1.51 1.49 1.43 1.39 1.32 1.24 1.21 1.12 1.10 1.15
0.98 1.04 1.21 1.35 1.55 1.75 1.89 2.06 2.14 2.21 2.28 2.31 2.35 2.51 2.63 2.72 2.76 2.78 2.75 2.67 2.57 2.48 2.46 2.44 2.39 2.35 2.31 2.34 2.23 1.95 1.82 1.81 1.78 1.69 1.51 1.43 1.40 1.42 1.45 1.42 1.39 1.41 1.44
0.95 0.99 1.11 1.20 1.32 1.52 1.70 1.83 2.04 2.32 2.46 2.41 2.37 2.36 2.34 2.45 2.53 2.60 2.58 2.51 2.40 2.34 2.23 2.19 2.14 2.10 2.14 2.21 2.09 1.90 1.88 1.88 1.83 1.68 1.57 1.57 1.55 1.60 1.67 1.69 1.67 1.63 1.63